Location: Alulod
(14.2076°N, 120.8898°E)
Time: 03:45:59
(UTC+00:00)

Atlas Centaur 2 - Pass Details

Date: 13 December 2025
Orbit: 456 x 1249 km, 30.4° (Epoch: 21 January)

Event Time Altitude Azimuth Distance (km) Brightness Sun altitude
Exits shadow 19:38:03 25° 188° (S) 2,099 4.2 -35.8°
Drops below altitude 10° 19:42:37 10° 156° (SSE) 3,120 5.6 -34.7°
Sets 19:46:07 0° 145° (SE) 4,145 6.5 -33.9°
